Effective Sunday, March 17, 2024, the National Weather Service National Data Buoy Center will discontinue its Dial-A-Buoy Interactive Voice Response system. For more information, see Service Change Notice 24-06 (PDF).

Station BKBF1 - 8720357 - I-295 Buckman Bridge, St Johns River, FL Image indicating link to RSS feed of recent meteorological observations for station BKBF1


Conditions at BKBF1 as of
(12:18 pm EST)
1718 GMT on 03/02/2024:
     

Click on the graph icon in the table below to see a time series plot of the last five days of that observation.

5-day plot - Wind Direction Wind Direction (WDIR):WSW ( 250 deg true )
5-day plot - Wind Speed Wind Speed (WSPD): 8.0 kts
5-day plot - Wind Gust Wind Gust (GST): 12.0 kts
5-day plot - Atmospheric Pressure Atmospheric Pressure (PRES):30.14 in
5-day plot - Air Temperature Air Temperature (ATMP): 74.7 °F
5-day plot - Wind Speed at 10 Meters Wind Speed at 10 meters (WSPD10M): 7.8 kts
5-day plot - Wind Speed at 20 Meters Wind Speed at 20 meters (WSPD20M): 9.7 kts
5-day plot -  Wind Speed, Wind Gust and Atmospheric Pressure Combined plot of Wind Speed, Gust, and Air Pressure
NOS Water Level Observation Network Water Level
Previous observations
TIME
(EST)
5-day plot - Wind Direction
WDIR
 
5-day plot - Wind Speed
WSPD
kts
5-day plot - Wind Gust
GST
kts
5-day plot - Wave Height
WVHT
ft
5-day plot - Dominant Wave Period
DPD
sec
5-day plot - Average Wave Period
APD
sec
5-day plot - Mean Wave Direction
MWD
 
5-day plot - Atmospheric Pressure
PRES
in
5-day plot - Pressure Tendency
PTDY
in
5-day plot - Air Temperature
ATMP
°F
5-day plot - Water Temperature
WTMP
°F
5-day plot - Dew Point
DEWP
°F
5-day plot - Salinity
SAL
psu
5-day plot - Visibility
VIS
nmi
5-day plot - Tide (above MLLW)
TIDE
ft
2024-03-02 12:12 pm SW 6.0 8.9----30.14- 74.5-----
2024-03-02 12:06 pm SW 6.0 8.0----30.14- 73.8-----
2024-03-02 12:00 pmSSW 5.1 8.0----30.15+0.02 72.0-----
2024-03-02 11:54 am S 5.1 7.0----30.15- 70.9-----
2024-03-02 11:48 am S 6.0 8.0----30.15- 70.7-----
2024-03-02 11:42 am S 5.1 8.0----30.15- 70.3-----
2024-03-02 11:36 am S 6.0 8.0----30.15- 70.3-----
2024-03-02 11:30 am S 6.0 8.0----30.15- 69.8-----
2024-03-02 11:24 am S 4.1 5.1----30.16- 70.0-----
2024-03-02 11:18 am S 1.9 4.1----30.16- 69.4-----
2024-03-02 11:12 am S 2.9 5.1----30.16- 68.9-----
2024-03-02 11:06 am S 4.1 7.0----30.16- 68.5-----
2024-03-02 11:00 am S 6.0 8.0----30.16+0.05 68.0-----
2024-03-02 10:54 am S 5.1 7.0----30.16- 68.5-----
2024-03-02 10:48 am S 7.0 8.9----30.15- 67.8-----
2024-03-02 10:42 am S 8.0 8.9----30.16- 67.5-----
2024-03-02 10:36 am S 6.0 7.0----30.16- 67.8-----
2024-03-02 10:30 am S 5.1 6.0----30.15-------
2024-03-02 10:24 am S 4.1 5.1----30.15-------
2024-03-02 10:18 am S 4.1 6.0----30.15- 67.8-----
2024-03-02 10:12 am S 4.1 5.1----30.15- 67.5-----
2024-03-02 10:06 am S 5.1 6.0----30.15- 67.1-----
2024-03-02 10:00 amSSW 1.9 2.9----30.14+0.04 67.3-----
2024-03-02 09:54 am SW 1.0 2.9----30.14- 67.1-----
2024-03-02 09:48 am S 1.9 2.9----30.14- 67.1-----
2024-03-02 09:42 am SW 1.9 4.1----30.14- 66.7-----
2024-03-02 09:36 amSSW 1.9 2.9----30.14- 66.6-----
2024-03-02 09:30 am S 2.9 4.1----30.14- 66.4-----
2024-03-02 09:24 amSSW 1.0 2.9----30.14- 66.2-----
2024-03-02 09:18 amSSW 1.9 4.1----30.14- 66.0-----
2024-03-02 09:12 am SW 4.1 6.0----30.14- 65.7-----
2024-03-02 09:06 am SW 2.9 4.1----30.14- 65.3-----
2024-03-02 09:00 amSSW 2.9 4.1----30.13+0.03 65.5-----
2024-03-02 08:54 amSSW 2.9 5.1----30.13- 65.3-----
2024-03-02 08:48 amSSE 5.1 8.0----30.12- 65.3-----
2024-03-02 08:42 am S 5.1 6.0----30.12- 65.3-----
2024-03-02 08:36 am S 4.1 6.0----30.12- 65.5-----
2024-03-02 08:30 amSSE 1.9 2.9----30.12- 65.5-----
2024-03-02 08:24 am- 0.0 4.1----30.12- 65.5-----
2024-03-02 08:18 amSSW 1.0 1.9----30.12- 65.3-----
2024-03-02 08:12 am S 2.9 4.1----30.12- 65.1-----
2024-03-02 08:06 am- 0.0 2.9----30.11- 65.1-----
2024-03-02 08:00 am SW 1.0 4.1----30.11+0.00 64.9-----
2024-03-02 07:54 am S 1.9 4.1----30.11- 64.8-----
2024-03-02 07:48 am S 1.9 2.9----30.11-------
2024-03-02 07:42 amSSW 1.9 2.9----30.11-------
2024-03-02 07:36 am S 1.0 1.9----30.10-------
2024-03-02 07:30 am SW 1.0 4.1----30.09- 64.6-----
2024-03-02 07:24 amWSW 2.9 2.9----30.10- 64.4-----
2024-03-02 07:18 am SE 1.0 4.1----30.10- 64.6-----
2024-03-02 07:12 am- 0.0 2.9----30.09- 64.6-----
2024-03-02 07:06 am SW 1.9 4.1----30.10- 64.4-----
2024-03-02 07:00 am SW 1.9 4.1----30.10+0.00 64.4-----
2024-03-02 06:54 amSSW 2.9 4.1----30.10- 64.4-----
2024-03-02 06:48 am S 1.9 2.9----30.10- 64.4-----
2024-03-02 06:42 am SW 1.0 2.9----30.10- 64.4-----
2024-03-02 06:36 am S 1.9 4.1----30.10- 64.4-----
2024-03-02 06:30 am-------30.10-------
2024-03-02 06:24 am-------30.10-------
2024-03-02 06:18 amSSE 1.0 1.0----30.09- 64.6-----
2024-03-02 06:12 am- 0.0 1.0----30.09- 64.6-----
2024-03-02 06:06 am- 0.0 2.9----30.10- 64.8-----
2024-03-02 06:00 am S 1.0 1.9----30.10-0.04------
2024-03-02 05:54 amSSW 1.0 1.9----30.11-------
2024-03-02 05:48 am- 0.0 1.0----30.11-------
2024-03-02 05:42 am- 0.0 1.9----30.11-------
2024-03-02 05:36 am SW 1.9 2.9----30.11-------
2024-03-02 05:30 amWSW 1.9 2.9----30.11- 65.3-----
2024-03-02 05:24 am SW 1.9 2.9----30.11- 65.3-----
2024-03-02 05:18 amSSW 1.0 1.9----30.11-------
2024-03-02 05:12 am SW 1.0 2.9----30.11-------
2024-03-02 05:06 am W 1.9 1.9----30.11-------
2024-03-02 05:00 amWNW 1.0 1.0----30.11-0.03 64.9-----
2024-03-02 04:54 amNNW 1.0 1.9----30.11- 64.9-----
2024-03-02 04:48 am- 0.0 1.9----30.11- 65.3-----
2024-03-02 04:42 am SW 1.9 4.1----30.11- 65.5-----
2024-03-02 04:36 am SW 2.9 4.1----30.11- 65.5-----
2024-03-02 04:30 amWSW 1.9 2.9----30.10- 65.3-----
2024-03-02 04:24 amSSW 1.9 2.9----30.10- 65.3-----
2024-03-02 04:18 amSSW 1.9 1.9----30.10- 65.5-----
2024-03-02 04:12 amSSW 1.9 1.9----30.10- 65.5-----
2024-03-02 04:06 am SW 1.0 1.9----30.11- 65.5-----
2024-03-02 04:00 am SW 1.9 1.9----30.11-0.03 65.5-----
2024-03-02 03:54 amSSW 1.9 2.9----30.12- 65.3-----
2024-03-02 03:48 am- 0.0 1.0----30.12- 65.3-----
2024-03-02 03:42 am- 0.0 1.0----30.12- 65.5-----
2024-03-02 03:36 am- 0.0 1.9----30.12- 65.5-----
2024-03-02 03:30 am S 1.9 1.9----30.13- 65.7-----
2024-03-02 03:24 am W 1.0 1.9----30.13- 65.5-----
2024-03-02 03:18 am- 0.0 1.0----30.13- 65.3-----
2024-03-02 03:12 am- 0.0 0.0----30.13- 65.3-----
2024-03-02 03:06 am- 0.0 1.0----30.13- 65.5-----
2024-03-02 03:00 am N 1.0 1.9----30.14+0.00 65.5-----
2024-03-02 02:54 am NE 1.9 1.9----30.13- 65.3-----
2024-03-02 02:48 am NE 1.0 1.0----30.14- 65.3-----
2024-03-02 02:42 am NE 1.0 1.0----30.14- 64.9-----
2024-03-02 02:36 am E 1.0 1.0----30.14- 64.9-----
2024-03-02 02:30 am- 0.0 1.9----30.14- 65.1-----
2024-03-02 02:24 amNNE 1.9 1.9----30.14- 65.3-----
2024-03-02 02:18 amENE 1.9 1.9----30.14- 65.3-----
2024-03-02 02:12 amENE 1.9 2.9----30.14- 65.3-----
2024-03-02 02:06 amENE 2.9 2.9----30.14- 65.1-----
2024-03-02 02:00 amNNE 1.9 1.9----30.14-0.01 64.9-----
2024-03-02 01:54 am E 1.0 1.9----30.14- 65.5-----
2024-03-02 01:48 am- 0.0 1.0----30.14- 65.7-----
2024-03-02 01:42 am- 0.0 1.0----30.14- 66.0-----
2024-03-02 01:36 amNNE 1.0 1.0----30.14- 66.0-----
2024-03-02 01:30 am- 0.0 0.0----30.14- 66.2-----
2024-03-02 01:24 am- 0.0 1.0----30.14- 66.2-----
2024-03-02 01:18 am- 0.0 1.0----30.15- 66.2-----
2024-03-02 01:12 am W 1.0 1.9----30.15- 66.4-----
2024-03-02 01:06 am- 0.0 1.0----30.14- 66.2-----
2024-03-02 01:00 am- 0.0 1.0----30.14+0.00 66.2-----
2024-03-02 12:54 am- 0.0 1.0----30.14- 66.2-----
2024-03-02 12:48 am- 0.0 1.0----30.14- 66.0-----
2024-03-02 12:42 am- 0.0 1.0----30.14- 66.2-----
2024-03-02 12:36 amNNW 1.0 1.0----30.14- 66.0-----
2024-03-02 12:30 am- 0.0 0.0----30.14- 65.8-----
2024-03-02 12:24 am- 0.0 1.0----30.14- 65.8-----
2024-03-02 12:18 am- 0.0 1.9----30.14- 65.8-----
2024-03-02 12:12 am SW 1.0 4.1----30.14- 65.7-----
2024-03-02 12:06 am S 1.9 2.9----30.14- 65.7-----
2024-03-02 12:00 am S 2.9 4.1----30.14-0.02 65.8-----
2024-03-01 11:54 pm S 1.9 2.9----30.14- 66.4-----
2024-03-01 11:48 pm S 1.9 2.9----30.14- 66.7-----
2024-03-01 11:42 pm SW 1.0 1.9----30.14- 66.6-----
2024-03-01 11:36 pm- 0.0 1.9----30.14- 66.6-----
2024-03-01 11:30 pm SW 1.9 4.1----30.14- 66.6-----
2024-03-01 11:24 pm SW 2.9 4.1----30.14- 66.6-----
2024-03-01 11:18 pmWSW 2.9 4.1----30.14- 66.4-----
2024-03-01 11:12 pm SW 1.9 2.9----30.14- 66.4-----
2024-03-01 11:06 pmWSW 1.9 2.9----30.15- 66.4-----
2024-03-01 11:00 pmWSW 1.9 2.9----30.15-0.01 66.2-----
2024-03-01 10:54 pmWSW 1.9 5.1----30.15- 66.2-----
2024-03-01 10:48 pm SW 4.1 5.1----30.15- 65.8-----
2024-03-01 10:42 pm SW 4.1 5.1----30.14- 65.7-----
2024-03-01 10:36 pm SW 2.9 4.1----30.14- 65.3-----
2024-03-01 10:30 pmSSW 1.9 5.1----30.14- 65.3-----
2024-03-01 10:24 pm S 2.9 4.1----30.14- 65.7-----
2024-03-01 10:18 pm SW 1.9 4.1----30.14- 65.5-----
2024-03-01 10:12 pmSSW 1.9 2.9----30.14- 65.7-----
2024-03-01 10:06 pm S 1.9 2.9----30.14- 65.8-----
2024-03-01 10:00 pm S 1.9 2.9----30.15+0.00 66.2-----
2024-03-01 09:54 pm S 1.9 1.9----30.15- 66.4-----
2024-03-01 09:48 pm S 1.9 2.9----30.16- 66.6-----
2024-03-01 09:42 pm S 1.9 2.9----30.16- 66.6-----
2024-03-01 09:36 pmSSE 1.0 1.9----30.16- 66.7-----
2024-03-01 09:30 pm SE 1.9 1.9----30.16- 66.7-----
2024-03-01 09:24 pm- 0.0 1.9----30.16- 66.0-----
2024-03-01 09:18 pm SE 1.9 2.9----30.16- 66.7-----
2024-03-01 09:12 pmESE 1.9 1.9----30.16- 66.6-----
2024-03-01 09:06 pm SE 1.9 2.9----30.16- 66.7-----
2024-03-01 09:00 pmESE 2.9 2.9----30.16+0.03 66.7-----
2024-03-01 08:54 pm SE 1.9 2.9----30.16- 66.2-----
2024-03-01 08:48 pm E 1.0 1.9----30.16- 65.8-----
2024-03-01 08:42 pm- 0.0 1.0----30.16- 65.8-----
2024-03-01 08:36 pm- 0.0 1.9----30.15- 65.7-----
2024-03-01 08:30 pm- 0.0 1.0----30.15- 65.7-----
2024-03-01 08:24 pm- 0.0 1.9----30.15- 65.7-----
2024-03-01 08:18 pm NE 1.9 1.9----30.15- 65.7-----
2024-03-01 08:12 pmENE 2.9 2.9----30.15- 65.5-----
2024-03-01 08:06 pm NE 1.9 4.1----30.15- 65.3-----
2024-03-01 08:00 pmENE 4.1 6.0----30.16+0.04 65.8-----
2024-03-01 07:54 pmENE 6.0 6.0----30.16- 66.2-----
2024-03-01 07:48 pm NE 2.9 4.1----30.16- 67.3-----
2024-03-01 07:42 pmNNE 2.9 2.9----30.15- 67.3-----
2024-03-01 07:36 pm NE 2.9 5.1----30.15- 67.1-----
2024-03-01 07:30 pm NE 5.1 5.1----30.15- 67.1-----
2024-03-01 07:24 pm N 1.0 1.9----30.15- 67.5-----
2024-03-01 07:18 pm N 1.9 5.1----30.15- 67.1-----
2024-03-01 07:12 pm N 5.1 6.0----30.15- 66.6-----
2024-03-01 07:06 pmENE 6.0 8.0----30.15- 66.6-----
2024-03-01 07:00 pmENE 5.1 6.0----30.14+0.02 67.8-----
2024-03-01 06:54 pm NE 5.1 5.1----30.14- 68.4-----
2024-03-01 06:48 pm N 4.1 6.0----30.14- 68.9-----
2024-03-01 06:42 pmNNE 2.9 5.1----30.14- 68.9-----
2024-03-01 06:36 pmSSE 1.9 4.1----30.14- 68.7-----
2024-03-01 06:30 pm SW 1.9 6.0----30.14- 68.9-----
2024-03-01 06:24 pmWNW 1.9 4.1----30.13- 68.5-----
2024-03-01 06:18 pmNNW 2.9 2.9----30.13- 68.7-----
2024-03-01 06:12 pmNNE 1.9 4.1----30.13- 68.4-----
2024-03-01 06:06 pm NE 2.9 4.1----30.13- 68.9-----
2024-03-01 06:00 pm NE 4.1 7.0----30.13-0.02 68.9-----
2024-03-01 05:54 pm NE 7.0 8.9----30.13- 68.7-----
2024-03-01 05:48 pm NE 7.0 8.0----30.12- 67.8-----
2024-03-01 05:42 pm NE 7.0 8.0----30.13- 69.6-----
2024-03-01 05:36 pm NE 7.0 8.0----30.12- 70.0-----
2024-03-01 05:30 pm NE 6.0 7.0----30.12- 71.1-----
2024-03-01 05:24 pmNNE 4.1 5.1----30.12- 71.6-----
2024-03-01 05:18 pmNNE 2.9 4.1----30.12- 71.4-----
2024-03-01 05:12 pmNNE 2.9 4.1----30.12- 71.2-----
2024-03-01 05:06 pmNNE 2.9 4.1----30.12- 71.2-----
2024-03-01 05:00 pmNNE 4.1 5.1----30.11-0.04 71.1-----
2024-03-01 04:54 pm NE 4.1 5.1----30.12- 70.9-----
2024-03-01 04:48 pm NE 4.1 5.1----30.12- 70.5-----
2024-03-01 04:42 pm NE 5.1 6.0----30.13- 70.2-----
2024-03-01 04:36 pm NE 6.0 7.0----30.13- 70.2-----
2024-03-01 04:30 pm NE 5.1 5.1----30.12- 70.5-----
2024-03-01 04:24 pm NE 5.1 5.1----30.11- 71.1-----
2024-03-01 04:18 pm NE 5.1 6.0----30.12- 70.7-----
2024-03-01 04:12 pm NE 6.0 6.0----30.12- 70.0-----
2024-03-01 04:06 pm NE 4.1 5.1----30.12- 70.7-----
2024-03-01 04:00 pm NE 4.1 5.1----30.12-0.06 70.9-----
2024-03-01 03:54 pm N 1.9 2.9----30.13- 71.6-----
2024-03-01 03:48 pm N 1.9 5.1----30.14- 71.1-----
2024-03-01 03:42 pmNNE 5.1 5.1----30.13- 70.3-----
2024-03-01 03:36 pmENE 4.1 5.1----30.13- 71.1-----
2024-03-01 03:30 pm E 5.1 7.0----30.14- 70.5-----
2024-03-01 03:24 pm NW 1.9 6.0----30.14- 72.3-----
2024-03-01 03:18 pm N 5.1 6.0----30.13- 72.7-----
2024-03-01 03:12 pmNNE 5.1 6.0----30.14- 72.9-----
2024-03-01 03:06 pmNNE 5.1 6.0----30.14- 73.0-----
2024-03-01 03:00 pm N 4.1 5.1----30.14-0.06 73.0-----
2024-03-01 02:54 pmNNE 6.0 8.9----30.15- 72.3-----
2024-03-01 02:48 pm NE 7.0 7.0----30.15- 71.8-----
2024-03-01 02:42 pm NE 4.1 5.1----30.15- 72.0-----
2024-03-01 02:36 pm N 1.9 5.1----30.15- 72.7-----
2024-03-01 02:30 pm- 0.0 1.0----30.15- 73.4-----
2024-03-01 02:24 pm- 0.0 1.0----30.15- 73.4-----
2024-03-01 02:18 pmSSE 1.0 1.0----30.15- 72.9-----
2024-03-01 02:12 pm- 0.0 1.0----30.15- 72.5-----
2024-03-01 02:06 pm- 0.0 1.0----30.15- 73.0-----
2024-03-01 02:00 pm- 0.0 1.9----30.15-0.08 73.0-----
2024-03-01 01:54 pm S 1.0 1.9----30.15- 72.7-----
2024-03-01 01:48 pm S 1.0 1.9----30.16- 72.5-----
2024-03-01 01:42 pm S 1.0 1.9----30.16- 72.0-----
2024-03-01 01:36 pm S 1.9 2.9----30.16- 71.6-----
2024-03-01 01:30 pmSSW 1.9 2.9----30.16- 71.1-----
2024-03-01 01:24 pmSSW 1.9 4.1----30.17- 70.9-----
2024-03-01 01:18 pm S 1.9 4.1----30.17- 70.9-----
2024-03-01 01:12 pmSSW 1.9 4.1----30.17- 70.5-----
2024-03-01 01:06 pmSSW 2.9 4.1----30.18- 70.3-----
2024-03-01 01:00 pmSSW 1.9 4.1----30.18-0.06 70.2-----
2024-03-01 12:54 pm S 2.9 4.1----30.19- 70.5-----